Weather Roundup
Issued by NWS Chicago, IL

Home | Current Version | Previous Version | Graphics & Text | Print | Product List | Glossary On
Versions: 1 2 3 4 5 6 7 8 9 10 11 12 13 14 15 16 17 18 19 20 21 22 23 24 25 26 27 28 29 30 31 32 33 34 35 36 37 38 39 40 41 42 43 44 45 46 47 48 49 50
000
NZUS59 KLOT 201408
HRRLOT

CHICAGO AREA WEATHER ROUNDUP
NATIONAL WEATHER SERVICE CHICAGO/ROMEOVILLE IL
900 AM CDT WED SEP 20 2017

NOTE: "FAIR" INDICATES FEW OR NO CLOUDS BELOW 12,000 FEET WITH NO
SIGNIFICANT WEATHER AND/OR OBSTRUCTIONS TO VISIBILITY.

* THESE STATIONS ARE NOT UNDER NWS QUALITY CONTROL. THEY ALSO MAY NOT
  REPORT WEATHER SUCH AS PRECIPITATION OR FOG.

ILZ005-006-012>014-019>023-201500-
NORTHEAST ILLINOIS

CITY           SKY/WX    TMP DP  RH WIND       PRES   REMARKS
OHARE          MOSUNNY   73  65  75 SE12      29.91S
MIDWAY         MOSUNNY   74  66  76 SE10      29.92S
AURORA         SUNNY     72  68  87 SE10      29.90F
LANSING*       SUNNY     71  68  91 S5        29.94S
JOLIET*        SUNNY     73  68  84 S8        29.91S
WAUKEGAN       MOSUNNY   69  68  96 SE12      29.91S FOG
DUPAGE AIRPORT SUNNY     72  68  87 S8        29.90S
WHEELING       SUNNY     73  68  84 SE10      29.92F
MORRIS*        SUNNY     71  68  89 SE8       29.90F
LEWIS AIRPORT* SUNNY     72  67  85 S8        29.92S
NORTHERLY ISL    N/A     72  67  84 E8          N/A
$$

WIZ051-052-058>065-066-070>072-201500-
SOUTHEAST WISCONSIN

CITY           SKY/WX    TMP DP  RH WIND       PRES   REMARKS
MILWAUKEE      CLOUDY    69  68  96 SE14      29.90F FOG
KENOSHA*       SUNNY     71  67  87 SE10      29.92S FOG
RACINE*        CLOUDY    70  69  97 SE12      29.93F FOG
WAUKESHA       MOSUNNY   66  64  94 SE9       29.91F
WEST BEND        N/A     64  64 100 SE8       29.91S FOG
$$

INZ001>003-010>013-019-020-201500-
NORTHWEST INDIANA

CITY           SKY/WX    TMP DP  RH WIND       PRES   REMARKS
GARY*          SUNNY     72  68  88 SE9       29.94F
MICHIGAN CITY* NOT AVBL
RENSSELAER*    NOT AVBL
VALPARAISO     PTSUNNY   69  68  96 SE6       29.97S FOG
$$

LMZ740>746-201500-
SOUTHERN LAKE MICHIGAN

STATION/POSITION TIME  SKY/WX   TEMP WIND        PRES    VSBY
                                AIR  DIR/SP/G
                 (UTC)          (F)  (DEG/KT/KT) (MB)    (MI)
HARRISON CRIB    1340            70  150/ 10/ 12   N/A
BURNHAM HARBOR   NOT AVBL
CALUMET HARBOR   1342            71  140/  5/ 10 1012.9F
BURNS HARBOR     1340            71  160/  6/ 15 1014.6S
MICHIGAN CITY    1340            69  130/ 11/ 13   N/A
$$

ABBREVIATIONS USED IN REMARKS
   TC - TEMPERATURE IN CELSIUS
  WCI - WIND CHILL INDEX
   HX - HEAT INDEX
  VSB - VISIBILITY
$$




USA.gov is the U.S. government's official web portal to all federal, state and local government web resources and services.